Location: Goettingen
(51.5300°N, 9.9433°E)
Time: 00:45:38
(UTC+02:00)

ISS - Pass Details

Date: 27 May 2017
Orbit: 402 x 408 km, 51.6° (Epoch: 30 May)

Event Time Altitude Azimuth Distance (km) Brightness Sun altitude
Rises 02:32:48 0° 283° (WNW) 2,333 0.0 -15.3°
Reaches altitude 10° 02:34:57 10° 277° (W) 1,469 -1.1 -15.2°
Maximum altitude 02:38:05 43° 205° (SSW) 582 -3.5 -15.0°
Drops below altitude 10° 02:41:13 10° 132° (SE) 1,460 -1.2 -14.9°
Sets 02:43:20 0° 125° (SE) 2,316 -0.1 -14.8°
